| time (UTC) | temp F | wind direction | speed knots | gust knots | rain 1hr in | rain 24hr in | rain mn in | humidity % | barometer mb |
| 20260906153020 | 74 | 165 | 0.0 | 5.2 | 0.00 | 0.00 | 0.00 | 84 | 1017.7 |
| 20260906151515 | 74 | 145 | 3.5 | 6.1 | 0.00 | 0.00 | 0.00 | 85 | 1017.7 |
| 20260906150014 | 72 | 47 | 0.9 | 4.3 | 0.00 | 0.00 | 0.00 | 88 | 1017.6 |
| 20260906144513 | 72 | 110 | 1.7 | 4.3 | 0.00 | 0.00 | 0.00 | 89 | 1017.4 |
| 20260906143010 | 71 | 51 | 0.9 | 6.1 | 0.00 | 0.00 | 0.00 | 90 | 1017.4 |
| 20260906141514 | 70 | 175 | 1.7 | 4.3 | 0.00 | 0.00 | 0.00 | 91 | 1017.3 |
| 20260906140011 | 70 | 99 | 0.9 | 6.1 | 0.00 | 0.00 | 0.00 | 92 | 1017.3 |
| 20260906134508 | 69 | 140 | 1.7 | 4.3 | 0.00 | 0.00 | 0.00 | 92 | 1017.2 |
| 20260906133007 | 69 | 103 | 0.9 | 7.0 | 0.00 | 0.00 | 0.00 | 93 | 1016.9 |
| 20260906131506 | 68 | 98 | 1.7 | 5.2 | 0.00 | 0.00 | 0.00 | 94 | 1016.9 |
| 20260906130005 | 68 | 79 | 0.9 | 5.2 | 0.00 | 0.00 | 0.00 | 94 | 1017.0 |
| 20260906124505 | 68 | 164 | 0.9 | 4.3 | 0.00 | 0.00 | 0.00 | 95 | 1017.2 |
| 20260906123003 | 67 | 94 | 0.9 | 3.5 | 0.00 | 0.00 | 0.00 | 95 | 1017.0 |
| 20260906121502 | 67 | 74 | 0.9 | 2.6 | 0.00 | 0.00 | 0.00 | 95 | 1017.1 |
| 20260906120002 | 67 | 44 | 0.0 | 3.5 | 0.00 | 0.00 | 0.00 | 95 | 1016.9 |
| 20260906114601 | 67 | 86 | 0.9 | 2.6 | 0.00 | 0.00 | 0.00 | 95 | 1016.8 |
| 20260906113057 | 67 | 61 | 0.9 | 1.7 | 0.00 | 0.00 | 0.00 | 95 | 1016.4 |
| 20260906111611 | 67 | 24 | 0.9 | 3.5 | 0.00 | 0.00 | 0.00 | 95 | 1016.1 |
| 20260906110057 | 67 | 80 | 0.9 | 3.5 | 0.00 | 0.00 | 0.00 | 94 | 1015.9 |
| 20260906104552 | 67 | 65 | 0.0 | 1.7 | 0.00 | 0.00 | 0.00 | 94 | 1015.8 |
| 20260906103049 | 68 | 84 | 0.9 | 3.5 | 0.00 | 0.00 | 0.00 | 94 | 1015.5 |
| 20260906101549 | 68 | 92 | 0.0 | 3.5 | 0.00 | 0.00 | 0.00 | 94 | 1015.2 |
| 20260906100053 | 68 | 80 | 0.9 | 3.5 | 0.00 | 0.00 | 0.00 | 94 | 1015.1 |
| 20260906094548 | 68 | 229 | 0.0 | 2.6 | 0.00 | 0.00 | 0.00 | 93 | 1015.0 |
| 20260906093044 | 68 | 131 | 0.0 | 0.0 | 0.00 | 0.00 | 0.00 | 93 | 1015.0 |
| 20260906091545 | 69 | 80 | 0.0 | 0.0 | 0.00 | 0.00 | 0.00 | 93 | 1015.1 |
| 20260906090041 | 69 | 86 | 0.0 | 2.6 | 0.00 | 0.00 | 0.00 | 93 | 1015.1 |
| 20260906084541 | 69 | 67 | 0.0 | 2.6 | 0.00 | 0.00 | 0.00 | 92 | 1015.1 |
| 20260906083042 | 70 | 97 | 0.0 | 1.7 | 0.00 | 0.00 | 0.00 | 92 | 1015.2 |
| 20260906081537 | 70 | 66 | 0.0 | 0.0 | 0.00 | 0.00 | 0.00 | 92 | 1015.2 |
| 20260906080039 | 70 | 101 | 0.0 | 1.7 | 0.00 | 0.00 | 0.00 | 91 | 1015.0 |
| 20260906074536 | 70 | 90 | 0.9 | 4.3 | 0.00 | 0.00 | 0.00 | 90 | 1015.0 |
| 20260906073032 | 71 | 82 | 0.0 | 3.5 | 0.00 | 0.00 | 0.00 | 90 | 1015.0 |
| 20260906071531 | 71 | 167 | 0.9 | 4.3 | 0.00 | 0.00 | 0.00 | 89 | 1015.2 |
| 20260906070031 | 71 | 149 | 0.9 | 5.2 | 0.00 | 0.00 | 0.00 | 89 | 1015.3 |
| 20260906064528 | 72 | 85 | 2.6 | 7.0 | 0.00 | 0.00 | 0.00 | 88 | 1015.5 |
| 20260906063026 | 72 | 151 | 0.9 | 7.8 | 0.00 | 0.00 | 0.00 | 89 | 1015.2 |
| 20260906061524 | 73 | 112 | 1.7 | 7.0 | 0.00 | 0.00 | 0.00 | 88 | 1015.1 |
| 20260906060027 | 73 | 69 | 1.7 | 7.0 | 0.00 | 0.00 | 0.00 | 87 | 1015.2 |
| 20260906054536 | 73 | 180 | 1.7 | 7.8 | 0.00 | 0.00 | 0.00 | 86 | 1015.3 |
| 20260906053018 | 73 | 189 | 1.7 | 8.7 | 0.00 | 0.00 | 0.00 | 86 | 1015.3 |
| 20260906051516 | 74 | 114 | 1.7 | 7.0 | 0.00 | 0.00 | 0.00 | 87 | 1015.1 |
| 20260906050014 | 74 | 61 | 0.9 | 7.8 | 0.00 | 0.00 | 0.00 | 88 | 1014.9 |
| 20260906044514 | 74 | 96 | 0.0 | 3.5 | 0.00 | 0.00 | 0.00 | 88 | 1014.9 |
| 20260906043017 | 74 | 76 | 0.0 | 2.6 | 0.00 | 0.00 | 0.00 | 88 | 1014.9 |
| 20260906041510 | 74 | 73 | 0.0 | 2.6 | 0.00 | 0.00 | 0.00 | 88 | 1014.5 |
| 20260906040011 | 74 | 50 | 0.0 | 2.6 | 0.00 | 0.00 | 0.00 | 88 | 1014.2 |
| 20260906034514 | 74 | 80 | 0.0 | 0.0 | 0.00 | 0.00 | 0.00 | 88 | 1014.0 |
| 20260906033016 | 74 | 73 | 0.0 | 1.7 | 0.00 | 0.00 | 0.00 | 88 | 1014.0 |
| 20260906031505 | 75 | 78 | 0.0 | 0.0 | 0.00 | 0.00 | 0.00 | 88 | 1013.9 |
| 20260906030001 | 75 | 60 | 0.0 | 0.0 | 0.00 | 0.00 | 0.00 | 87 | 1013.8 |
| 20260906024613 | 75 | 72 | 0.0 | 0.9 | 0.00 | 0.00 | 0.00 | 87 | 1013.6 |
| 20260906023103 | 75 | 105 | 0.0 | 0.0 | 0.00 | 0.00 | 0.00 | 87 | 1013.4 |
| 20260906021556 | 75 | 140 | 0.0 | 0.0 | 0.00 | 0.00 | 0.00 | 87 | 1013.3 |
| 20260906020054 | 75 | 105 | 0.0 | 1.7 | 0.00 | 0.00 | 0.00 | 86 | 1013.1 |
| 20260906014552 | 76 | 165 | 0.9 | 6.1 | 0.00 | 0.00 | 0.00 | 85 | 1012.9 |
| 20260906013051 | 76 | 78 | 1.7 | 7.0 | 0.00 | 0.00 | 0.00 | 85 | 1012.7 |
| 20260906011550 | 77 | 65 | 0.9 | 7.0 | 0.00 | 0.00 | 0.00 | 84 | 1012.6 |
| 20260906010050 | 77 | 97 | 1.7 | 7.8 | 0.00 | 0.00 | 0.00 | 82 | 1012.8 |
| 20260906004549 | 78 | 26 | 1.7 | 7.8 | 0.00 | 0.00 | 0.00 | 82 | 1012.7 |
| 20260906003048 | 79 | 28 | 0.9 | 7.8 | 0.00 | 0.00 | 0.00 | 82 | 1012.8 |
| 20260906001548 | 80 | 70 | 0.0 | 7.0 | 0.00 | 0.00 | 0.00 | 80 | 1012.7 |
| 20260906000047 | 81 | 26 | 0.9 | 5.2 | 0.00 | 0.00 | 0.00 | 80 | 1012.6 |
| 20260905234547 | 81 | 84 | 2.6 | 8.7 | 0.00 | 0.00 | 0.00 | 79 | 1012.4 |
| 20260905233055 | 82 | 103 | 1.7 | 7.8 | 0.00 | 0.00 | 0.00 | 79 | 1012.3 |
| 20260905231546 | 83 | 324 | 2.6 | 10.4 | 0.00 | 0.00 | 0.00 | 80 | 1012.2 |
| 20260905230045 | 83 | 78 | 1.7 | 7.0 | 0.00 | 0.00 | 0.00 | 80 | 1012.2 |
| 20260905224610 | 84 | 274 | 2.6 | 5.2 | 0.00 | 0.00 | 0.00 | 79 | 1012.3 |
| 20260905223046 | 84 | 38 | 1.7 | 7.0 | 0.00 | 0.00 | 0.00 | 78 | 1012.2 |
| 20260905221542 | 85 | 109 | 2.6 | 7.0 | 0.00 | 0.00 | 0.00 | 77 | 1012.1 |
| 20260905220042 | 85 | 342 | 1.7 | 7.8 | 0.00 | 0.00 | 0.00 | 76 | 1011.9 |
| 20260905214547 | 86 | 360 | 0.9 | 5.2 | 0.00 | 0.00 | 0.00 | 76 | 1012.0 |
| 20260905213041 | 87 | 115 | 2.6 | 7.0 | 0.00 | 0.00 | 0.00 | 75 | 1011.9 |
| 20260905211546 | 87 | 311 | 1.7 | 8.7 | 0.00 | 0.00 | 0.00 | 76 | 1011.7 |
| 20260905210049 | 88 | 107 | 1.7 | 5.2 | 0.00 | 0.00 | 0.00 | 76 | 1011.5 |
| 20260905204539 | 89 | 54 | 2.6 | 9.6 | 0.00 | 0.00 | 0.00 | 74 | 1011.6 |
| 20260905203038 | 90 | 261 | 1.7 | 7.0 | 0.00 | 0.00 | 0.00 | 72 | 1011.7 |
| 20260905201535 | 90 | 314 | 2.6 | 8.7 | 0.00 | 0.00 | 0.00 | 71 | 1011.9 |
| 20260905200034 | 91 | 298 | 0.9 | 6.1 | 0.00 | 0.00 | 0.00 | 70 | 1011.8 |
| 20260905194529 | 91 | 57 | 0.0 | 2.6 | 0.00 | 0.00 | 0.00 | 69 | 1011.8 |
| 20260905193027 | 90 | 32 | 1.7 | 7.8 | 0.00 | 0.00 | 0.00 | 70 | 1011.9 |
| 20260905191527 | 90 | 259 | 0.9 | 6.1 | 0.00 | 0.00 | 0.00 | 71 | 1012.0 |
| 20260905190026 | 90 | 23 | 0.0 | 5.2 | 0.00 | 0.00 | 0.00 | 71 | 1012.3 |
| 20260905184530 | 90 | 44 | 0.9 | 3.5 | 0.00 | 0.00 | 0.00 | 70 | 1012.3 |
| 20260905183025 | 90 | 86 | 0.0 | 5.2 | 0.00 | 0.00 | 0.00 | 71 | 1012.2 |
| 20260905181524 | 90 | 45 | 0.0 | 4.3 | 0.00 | 0.00 | 0.00 | 72 | 1012.3 |
| 20260905180025 | 89 | 90 | 0.9 | 4.3 | 0.00 | 0.00 | 0.00 | 72 | 1012.4 |
| 20260905174525 | 90 | 297 | 0.9 | 5.2 | 0.00 | 0.00 | 0.00 | 70 | 1012.5 |
| 20260905173021 | 91 | 76 | 0.0 | 3.5 | 0.00 | 0.00 | 0.00 | 70 | 1012.6 |
| 20260905171520 | 91 | 56 | 0.9 | 6.1 | 0.00 | 0.00 | 0.00 | 69 | 1012.6 |
| 20260905170016 | 90 | 55 | 0.0 | 5.2 | 0.00 | 0.00 | 0.00 | 71 | 1012.8 |
| 20260905164523 | 89 | 180 | 0.0 | 4.3 | 0.00 | 0.00 | 0.00 | 72 | 1012.9 |
| 20260905163012 | 89 | 144 | 0.9 | 7.0 | 0.00 | 0.00 | 0.00 | 70 | 1012.9 |
| 20260905161509 | 89 | 33 | 0.9 | 5.2 | 0.00 | 0.00 | 0.00 | 72 | 1012.8 |
| 20260905160007 | 88 | 61 | 2.6 | 7.0 | 0.00 | 0.00 | 0.00 | 72 | 1012.8 |
| 20260905154504 | 87 | 47 | 2.6 | 7.0 | 0.00 | 0.00 | 0.00 | 74 | 1012.8 |